"Time","Temp","Dewpoint","Humidity","Pressure","Direction","Speed","Gust","Precip","PrecipRate"
"00:04:59","46.9","46.1","97.1","29.56","336","0","0","0.00","0.00"
"00:09:57","46.9","46.4","98","29.56","336","0.3","2.4","0.00","0.00"
"00:14:59","47.2","46.7","98","29.57","336","0.2","2.4","0.00","0.00"
"00:19:58","47.5","47","98","29.57","336","0.3","2.4","0.00","0.00"
"00:24:58","47.5","47","98","29.57","337","0","1.2","0.00","0.00"
"00:29:58","47.6","47.1","98","29.57","337","0","0","0.00","0.00"
"00:34:58","47.6","47.1","98","29.57","337","0","0","0.00","0.00"
"00:39:59","47.6","47.1","98","29.57","337","0","0","0.00","0.00"
"00:44:55","47.7","47.2","98","29.57","337","0","0","0.00","0.00"
"00:49:59","47.7","47.2","97.9","29.57","337","0","0","0.00","0.00"
"00:54:59","47.6","46.9","97.4","29.57","337","0","0","0.00","0.00"
"00:59:59","47.6","47","97.7","29.57","337","0","0","0.00","0.00"
"01:04:57","47.5","47","98","29.57","337","0","0","0.00","0.00"
"01:09:56","47.6","47.1","98","29.57","337","0","0","0.00","0.00"
"01:14:58","47.7","47.2","98","29.57","337","0","0","0.00","0.00"
"01:19:58","47.6","47.1","98","29.57","337","0","0","0.00","0.00"
"01:24:57","47.5","46.8","97.4","29.57","337","0","0","0.00","0.00"
"01:29:56","47.6","47","97.7","29.58","337","0","0","0.00","0.00"
"01:34:59","47.8","47.3","98","29.58","337","0.1","3.6","0.00","0.00"
"01:39:57","48.2","47.7","98","29.58","337","1.1","3.6","0.00","0.00"
"01:44:56","48","47.5","98","29.58","337","0.2","1.2","0.00","0.00"
"01:49:56","47.9","47.2","97.4","29.58","337","0","0","0.00","0.00"
"01:54:56","47.9","47.3","97.6","29.58","337","0.1","2.4","0.00","0.00"
"01:59:59","48","47.5","98","29.59","337","0.1","2.3","0.00","0.00"
"02:04:57","48.1","47.6","98","29.59","337","0","0","0.00","0.00"
"02:09:56","48.2","47.7","98","29.59","337","0","0","0.00","0.00"
"02:14:58","48.2","47.7","98","29.60","337","0","0","0.00","0.00"
"02:19:58","48.1","47.6","98","29.60","337","0","1.2","0.00","0.00"
"02:24:57","47.9","47.1","97.2","29.60","337","0.5","2.4","0.00","0.00"
"02:29:56","47.9","47.4","97.8","29.60","337","1.5","3.6","0.00","0.00"
"02:34:56","48.1","47.6","98","29.60","337","1.5","3.6","0.00","0.00"
"02:39:57","48.3","47.8","98","29.60","337","1.2","3.5","0.00","0.00"
"02:44:57","48.3","47.8","98","29.60","337","0.3","2.4","0.00","0.00"
"02:49:56","48.3","47.8","98","29.60","337","0.6","2.4","0.00","0.00"
"02:54:59","48.3","47.8","98","29.60","337","0.3","2.4","0.00","0.00"
"02:59:59","48.4","47.9","98","29.61","337","0.4","1.2","0.00","0.00"
"03:04:59","48.4","47.9","98","29.61","337","0.9","2.4","0.00","0.00"
"03:09:58","48.5","48","98","29.61","337","0","1.2","0.00","0.00"
"03:14:56","48.4","47.9","98","29.61","337","0","0","0.00","0.00"
"03:19:59","48.3","47.7","97.7","29.61","337","0","0","0.00","0.00"
"03:24:59","48.2","47.7","98","29.61","337","0","0","0.00","0.00"
"03:29:59","48.2","47.7","98","29.62","337","0.2","1.2","0.00","0.00"
"03:34:58","48.3","47.8","98","29.62","337","0.5","2.4","0.00","0.00"
"03:39:56","48.3","47.8","98","29.62","337","0.2","2.3","0.00","0.00"
"03:44:58","48.3","47.8","98","29.62","337","0","0","0.00","0.00"
"03:49:57","48.3","47.8","98","29.62","337","0","0","0.00","0.00"
"03:54:57","48.3","47.8","98","29.62","337","0","0","0.00","0.00"
"03:59:57","48.3","47.8","98","29.62","337","0","0","0.00","0.00"
"04:04:56","48.3","47.8","98","29.62","337","0","0","0.00","0.00"
"04:09:59","48.2","47.7","98","29.62","337","0","0","0.00","0.00"
"04:14:56","48.3","47.8","98","29.62","337","0","0","0.00","0.00"
"04:19:59","48.3","47.8","98","29.62","337","0","0","0.00","0.00"
"04:24:57","48.3","47.8","98","29.62","336","0.6","3.6","0.00","0.00"
"04:29:56","48.3","47.8","98","29.63","331","0.4","4.8","0.00","0.00"
"04:34:59","48.5","48","98","29.63","197","1.9","6","0.00","0.00"
"04:39:59","48.6","48.1","98","29.63","198","1.4","4.8","0.00","0.00"
"04:44:58","48.7","48.2","98","29.63","198","0.9","2.4","0.00","0.00"
"04:49:57","48.9","48.4","98","29.63","198","1","4.8","0.00","0.00"
"04:54:56","48.9","48.4","98","29.63","198","0.6","2.4","0.00","0.00"
"04:59:59","49","48.5","98","29.63","198","0.3","2.4","0.00","0.00"
"05:04:57","49","48.3","97.5","29.63","184","0.9","3.6","0.00","0.00"
"05:09:57","49","48.2","97.2","29.63","183","0.6","2.4","0.00","0.00"
"05:14:58","48.9","48.1","97","29.64","183","0","0","0.00","0.00"
"05:19:57","48.9","48.1","97","29.64","183","0","0","0.00","0.00"
"05:24:56","48.9","48.1","97","29.64","183","0","0","0.00","0.00"
"05:29:59","48.8","48","97","29.65","183","0","0","0.00","0.00"
"05:34:58","48.7","47.9","97","29.65","183","0","0","0.00","0.00"
"05:39:59","48.6","47.8","97","29.65","183","0.1","1.2","0.00","0.00"
"05:44:58","48.6","47.8","97","29.66","183","0","1.2","0.00","0.00"
"05:49:57","48.5","47.7","97","29.66","183","0","1.2","0.00","0.00"
"05:54:59","48.5","47.7","97","29.66","183","0.2","1.2","0.00","0.00"
"05:59:58","48.5","47.7","97","29.67","183","1","2.4","0.00","0.00"
"06:04:56","48.3","47.5","97","29.67","183","0.3","2.3","0.00","0.00"
"06:09:56","48.2","47.4","97","29.67","183","0","1.2","0.00","0.00"
"06:14:58","48.2","47.4","97","29.68","183","0.4","3.6","0.00","0.00"
"06:19:57","48.1","47.3","97","29.68","236","2","13.2","0.00","0.00"
"06:24:59","48.5","47.5","96.6","29.68","314","4.6","12.7","0.00","0.00"
"06:29:58","50","47.7","91.6","29.69","304","8.5","21.9","0.00","0.00"
"06:34:56","51.7","47.7","86.1","29.69","316","8.3","23","0.00","0.00"
"06:39:57","52.6","47.3","82","29.69","318","8.5","19.6","0.00","0.00"
"06:44:59","52.8","46.9","80.3","29.69","292","5.5","16.1","0.00","0.00"
"06:49:58","52.8","46.6","79.3","29.69","284","4.4","11.5","0.00","0.00"
"06:54:57","52.8","46.1","77.8","29.69","288","5.4","15","0.00","0.00"
"06:59:56","52.7","45.9","77.8","29.71","296","3.9","10.8","0.00","0.00"
"07:04:58","52.4","45.7","78","29.71","263","4.2","16.1","0.00","0.00"
"07:09:57","52.3","45.6","78","29.71","311","3.5","16.1","0.00","0.00"
"07:14:57","52.1","45.5","78.2","29.73","312","7.2","16.1","0.00","0.00"
"07:19:56","51.9","45.4","78.3","29.73","304","7.3","25.3","0.00","0.00"
"07:24:59","51.7","44.8","77","29.73","309","6.2","16.1","0.00","0.00"
"07:29:58","51.5","44.4","76.7","29.74","317","4.9","10.8","0.00","0.00"
"07:34:57","51.2","44","76.2","29.74","307","4.4","12","0.00","0.00"
"07:39:58","51","43.7","76","29.74","295","3.7","11.5","0.00","0.00"
"07:44:56","50.8","43.5","76","29.76","312","4.1","12","0.00","0.00"
"07:49:59","50.8","43.5","75.8","29.76","298","5.1","13.2","0.00","0.00"
"07:54:57","50.8","43.2","75","29.76","310","5.9","18.4","0.00","0.00"
"07:59:57","50.9","43.3","75","29.77","326","6.8","17.3","0.00","0.00"
"08:04:59","50.9","43.4","75.2","29.77","315","6.7","14.4","0.00","0.00"
"08:09:57","51","43","74","29.77","317","8","20.7","0.00","0.00"
"08:14:58","51.1","42.6","72.6","29.79","327","8.9","18.4","0.00","0.00"
"08:19:56","51","41.6","70.2","29.79","327","8.2","18.4","0.00","0.00"
"08:24:59","50.8","41.2","69.6","29.79","340","5.7","16.1","0.00","0.00"
"08:29:57","50.6","40.9","69.2","29.80","328","5.2","15.6","0.00","0.00"
"08:34:55","50.3","40.3","68.3","29.80","316","9","20.7","0.00","0.00"
"08:39:56","50.5","40.3","68.2","29.80","307","7.1","18.4","0.00","0.00"
"08:44:58","50.7","40.8","68.8","29.82","317","5.4","16.1","0.00","0.00"
"08:49:57","50.9","40.9","68.7","29.82","323","5.2","13.2","0.00","0.00"
"08:54:59","51.1","40.9","67.9","29.82","325","6.3","19.6","0.00","0.00"
"08:59:57","51.2","40.7","67.3","29.83","325","7.9","19.6","0.00","0.00"
"09:04:56","51.2","40.7","67.1","29.83","321","7.9","18.4","0.00","0.00"
"09:09:58","51.3","40.7","67.1","29.83","327","9.6","18.4","0.00","0.00"
"09:14:59","51","40.6","67.4","29.84","322","9","19.2","0.00","0.00"
"09:19:58","50.7","40.4","67.7","29.84","321","10.2","20.7","0.00","0.00"
"09:24:56","50.3","40.1","67.9","29.84","313","9.1","19.2","0.00","0.00"
"09:29:58","49.9","39.8","68","29.86","323","10.4","20.7","0.00","0.00"
"09:34:57","49.6","39.7","68.7","29.86","338","7.7","18.4","0.00","0.00"
"09:39:57","49.5","40","69.7","29.86","327","6.9","13.2","0.00","0.00"
"09:44:56","49.8","40.4","69.8","29.86","322","4.7","13.2","0.00","0.00"
"09:49:58","50.5","40.7","69.2","29.86","339","7.1","24.2","0.00","0.00"
"09:54:58","50.9","40.9","68.5","29.86","328","6.7","18.4","0.00","0.00"
"09:59:56","51.1","40.6","67.3","29.86","330","7","15","0.00","0.00"
"10:04:58","51.2","40.4","66.5","29.86","331","9.4","19.2","0.00","0.00"
"10:09:56","51.2","39.9","65.3","29.86","326","9.2","20.7","0.00","0.00"
"10:14:57","51.5","40.1","65","29.86","322","7.8","19.6","0.00","0.00"
"10:19:56","51.5","39.4","63.1","29.86","320","10","21.9","0.00","0.00"
"10:24:58","51.8","40.1","64.4","29.86","332","3.9","11.5","0.00","0.00"
"10:29:57","52.1","40","63.3","29.88","316","4.4","15.6","0.00","0.00"
"10:34:56","51.9","39.8","63.4","29.88","349","6.5","16.1","0.00","0.00"
"10:39:56","51.7","39.7","63.4","29.88","334","7.6","16.1","0.00","0.00"
"10:44:59","51.7","40.1","64.4","29.88","314","4.9","14.4","0.00","0.00"
"10:49:57","51.7","39.5","63.2","29.87","322","6.7","16.1","0.00","0.00"
"10:54:56","51.5","39.7","64.1","29.87","316","4.6","9.6","0.00","0.00"
"10:59:59","51.2","39.3","63.7","29.88","342","6.5","21.9","0.00","0.00"
"11:04:56","51","39.2","64","29.88","335","5.1","12","0.00","0.00"
"11:09:59","51","39.3","64.3","29.88","314","5","12","0.00","0.00"
"11:14:56","51.2","39.7","64.7","29.88","304","4.9","10.8","0.00","0.00"
"11:19:58","52.2","40.9","65.3","29.88","333","6","16.8","0.00","0.00"
"11:24:56","53.1","40.8","63.2","29.88","326","6.5","15","0.00","0.00"
"11:29:58","53.6","40.7","61.6","29.88","305","5.7","15.6","0.00","0.00"
"11:34:57","53","40","61.1","29.88","317","7","16.1","0.00","0.00"
"11:39:57","52.2","39.4","61.5","29.88","327","7.8","18.4","0.00","0.00"
"11:44:56","51.8","39.7","63.2","29.88","326","3.4","10.4","0.00","0.00"
"11:49:59","51.6","39.9","64.3","29.88","313","4.4","13.2","0.00","0.00"
"11:54:58","51.3","39.4","63.9","29.88","325","5.4","16.1","0.00","0.00"
"11:59:56","51.2","39.6","64.6","29.88","301","3.8","12","0.00","0.00"
"12:04:57","51.1","39.8","65.3","29.88","296","5.4","15.6","0.00","0.00"
"12:09:56","51","39.5","64.8","29.88","296","5.9","16.1","0.00","0.00"
"12:14:56","50.9","39.4","64.8","29.88","301","6.7","15","0.00","0.00"
"12:19:59","50.9","39.5","65.1","29.88","321","4.8","11.5","0.00","0.00"
"12:24:57","50.9","39.6","65.1","29.88","312","5.8","17.3","0.00","0.00"
"12:29:59","50.9","39.5","65.1","29.88","300","5.6","15.6","0.00","0.00"
"12:34:58","50.8","39.3","64.5","29.88","297","5.6","16.1","0.00","0.00"
"12:39:59","50.8","39.4","64.8","29.88","321","5.4","16.1","0.00","0.00"
"12:44:57","50.8","39.5","65.2","29.88","293","5","15","0.00","0.00"
"12:49:56","50.7","39.7","66","29.88","292","4.6","10.8","0.00","0.00"
"12:54:59","50.6","39.9","66.5","29.88","287","2.9","10.4","0.00","0.00"
"12:59:58","50.7","40","66.9","29.88","309","3.4","12","0.00","0.00"
"13:04:56","50.7","40.2","67.2","29.88","294","3.3","8.1","0.00","0.00"
"13:09:58","50.9","40.3","67.2","29.88","302","3","10.8","0.00","0.00"
"13:14:59","50.9","40.1","66.4","29.89","299","4","9.6","0.00","0.00"
"13:19:58","51","40","66","29.89","293","4.3","8.4","0.00","0.00"
"13:24:57","50.9","40","66.2","29.89","325","4.8","12","0.00","0.00"
"13:29:59","50.9","40.1","66.4","29.89","295","4.3","10.8","0.00","0.00"
"13:34:57","50.9","40.3","67","29.89","336","3.5","10.8","0.00","0.00"
"13:39:58","50.9","40.2","66.7","29.89","327","3.9","12","0.00","0.00"
"13:44:59","50.9","40","66.2","29.89","293","3.6","11.5","0.00","0.00"
"13:49:57","50.9","40.2","66.6","29.89","270","3","10.8","0.00","0.00"
"13:54:56","50.9","40.1","66.5","29.89","306","3.6","7.2","0.00","0.00"
"13:59:58","50.8","40.2","66.8","29.91","299","3.3","10.8","0.00","0.00"
"14:04:56","50.8","39.9","66.3","29.91","303","4.5","10.4","0.00","0.00"
"14:09:59","50.8","39.8","66.2","29.91","323","4.6","8.4","0.00","0.00"
"14:14:56","50.7","39.7","66","29.91","335","5.4","13.2","0.00","0.00"
"14:19:58","50.7","39.8","66.2","29.91","344","3.1","9.2","0.00","0.00"
"14:24:57","50.7","40.1","67.1","29.91","308","2","6.9","0.00","0.00"
"14:29:56","50.7","39.9","66.6","29.91","326","3.8","10.8","0.00","0.00"
"14:34:58","50.8","40.3","67.2","29.91","286","3.3","8.4","0.00","0.00"
"14:39:58","50.8","39.8","66","29.91","328","4.1","10.8","0.00","0.00"
"14:44:56","50.8","39.8","66","29.92","309","4.2","10.4","0.00","0.00"
"14:49:59","50.8","39.9","66.3","29.92","288","2.8","8.4","0.00","0.00"
"14:54:57","50.8","39.8","66","29.92","316","3","10.8","0.00","0.00"
"14:59:56","50.7","39.7","66","29.93","298","4.6","9.6","0.00","0.00"
"15:04:58","50.6","39.7","66.1","29.93","322","2.7","7.2","0.00","0.00"
"15:09:56","50.5","39.7","66.1","29.93","314","6","17.3","0.00","0.00"
"15:14:57","50.4","39.6","66.2","29.94","299","4.2","12","0.00","0.00"
"15:19:59","50.4","39.6","66.2","29.94","327","4.4","15.6","0.00","0.00"
"15:24:58","50.3","39.7","66.7","29.94","321","5.3","15","0.00","0.00"
"15:29:56","50.3","39.7","66.7","29.94","317","6.1","15","0.00","0.00"
"15:34:58","50.2","39.4","66.3","29.94","323","4.9","10.8","0.00","0.00"
"15:39:58","50.2","39.3","66","29.94","313","5.6","12","0.00","0.00"
"15:44:57","50.1","39.4","66.4","29.95","310","4.2","10.8","0.00","0.00"
"15:49:59","50.1","39.6","67","29.95","261","2.6","6","0.00","0.00"
"15:54:58","49.9","39.4","67","29.95","302","3.4","10.8","0.00","0.00"
"15:59:56","49.9","39.3","66.8","29.96","320","4.1","10.8","0.00","0.00"
"16:04:58","49.9","39.2","66.5","29.96","302","3.4","7.2","0.00","0.00"
"16:09:56","49.8","39.1","66.5","29.96","310","4.2","13.2","0.00","0.00"
"16:14:57","49.7","39","66.5","29.97","320","4.2","12","0.00","0.00"
"16:19:59","49.7","38.8","66","29.97","264","3.4","10.8","0.00","0.00"
"16:24:58","49.7","38.9","66.4","29.97","275","2.7","4.8","0.00","0.00"
"16:29:57","49.6","39","66.8","29.98","275","1.3","6","0.00","0.00"
"16:34:56","49.6","39","66.7","29.98","282","2.8","6","0.00","0.00"
"16:39:57","49.6","38.8","66.4","29.98","279","3.3","7.2","0.00","0.00"
"16:44:56","49.5","38.7","66.2","29.99","282","4.2","13.2","0.00","0.00"
"16:49:59","49.5","38.9","66.9","29.99","275","3.9","12.7","0.00","0.00"
"16:54:58","49.4","38.7","66.4","29.99","276","2.7","7.2","0.00","0.00"
"16:59:57","49.4","38.5","66","29.99","319","4.5","12","0.00","0.00"
"17:04:56","49.3","38.8","67","29.99","331","1.8","6.9","0.00","0.00"
"17:09:58","49.2","38.7","67","29.99","293","2.6","6","0.00","0.00"
"17:14:56","49.2","38.7","67","30.00","296","2.6","6","0.00","0.00"
"17:19:59","49.1","38.6","67","30.00","304","3.1","8.4","0.00","0.00"
"17:24:59","49.1","38.6","67","30.00","311","2.7","7.2","0.00","0.00"
"17:29:57","49","38.5","67","30.01","310","3.7","7.2","0.00","0.00"
"17:34:57","49","38.5","67","30.01","300","3.6","13.2","0.00","0.00"
"17:39:58","49","38.5","67","30.01","326","3.4","12.7","0.00","0.00"
"17:44:57","49","38.3","66.5","30.02","324","4.2","15","0.00","0.00"
"17:49:56","49","38.2","66.3","30.02","297","3.6","8.4","0.00","0.00"
"17:54:56","49","38.2","66.2","30.02","305","3.9","7.2","0.00","0.00"
"17:59:59","49","38.2","66.3","30.02","327","2.9","7.2","0.00","0.00"
"18:04:57","48.9","38.2","66.6","30.02","330","3.3","6","0.00","0.00"
"18:09:56","48.8","38.1","66.5","30.02","311","3.5","7.2","0.00","0.00"
"18:14:58","48.8","38.3","67","30.03","323","3.1","6","0.00","0.00"
"18:19:57","48.7","38.3","67.2","30.03","312","2.8","7.2","0.00","0.00"
"18:24:56","48.7","38.2","67","30.03","289","4","8.4","0.00","0.00"
"18:29:58","48.6","38.2","67.3","30.03","291","2.9","7.2","0.00","0.00"
"18:34:57","48.5","38","67","30.03","295","4.3","9.6","0.00","0.00"
"18:39:58","48.4","37.9","67","30.03","316","3.5","9.6","0.00","0.00"
"18:44:57","48.4","37.9","67","30.03","322","5.1","17.3","0.00","0.00"
"18:49:57","48.3","37.8","67","30.03","308","2","6","0.00","0.00"
"18:54:56","48.1","37.7","67","30.03","299","1.6","6","0.00","0.00"
"18:59:59","47.9","37.7","67.5","30.04","299","2.3","6","0.00","0.00"
"19:04:57","47.7","37.7","68","30.04","300","2.9","9.6","0.00","0.00"
"19:09:56","47.6","37.6","68","30.04","311","3.8","10.8","0.00","0.00"
"19:14:58","47.6","37.6","68","30.05","296","2.8","8.4","0.00","0.00"
"19:19:57","47.4","37.4","68","30.05","283","1.6","6","0.00","0.00"
"19:24:56","47.2","37.3","68.2","30.05","268","2.1","5.8","0.00","0.00"
"19:29:59","47.2","37.4","68.8","30.06","291","2.4","3.6","0.00","0.00"
"19:34:58","47.1","37.4","69","30.06","289","1.7","4.8","0.00","0.00"
"19:39:59","47","37.4","69","30.06","286","1.4","4.6","0.00","0.00"
"19:44:58","46.8","37.2","69","30.06","280","0.6","4.8","0.00","0.00"
"19:49:58","46.6","37.1","69.2","30.06","281","0.2","1.2","0.00","0.00"
"19:54:57","46.4","37","69.8","30.06","281","0.1","1.2","0.00","0.00"
"19:59:57","46.1","36.9","70.3","30.07","281","0.5","2.4","0.00","0.00"
"20:04:59","45.7","37","71.5","30.07","281","0.8","3.6","0.00","0.00"
"20:09:58","45.5","37","72","30.07","281","1.8","3.6","0.00","0.00"
"20:14:56","45.6","36.8","71.3","30.08","291","2.7","7.2","0.00","0.00"
"20:19:59","45.8","36.9","71","30.08","328","2.7","6.9","0.00","0.00"
"20:24:58","45.8","36.9","71","30.08","328","1.7","3.6","0.00","0.00"
"20:29:58","45.8","36.8","70.5","30.09","328","1.4","3.6","0.00","0.00"
"20:34:57","45.8","36.6","70.1","30.09","328","0","2.3","0.00","0.00"
"20:39:59","45.6","36.7","71","30.09","328","0.3","1.2","0.00","0.00"
"20:44:58","45.2","36.4","71.1","30.09","328","0.1","1.2","0.00","0.00"
"20:49:58","44.9","36.4","72","30.09","328","0","0","0.00","0.00"
"20:54:58","44.5","36","72","30.09","328","0.1","1.2","0.00","0.00"
"20:59:57","44.1","36","73","30.10","328","0.1","2.4","0.00","0.00"
"21:04:59","43.7","35.9","73.8","30.10","328","0","2.3","0.00","0.00"
"21:09:59","43.3","35.8","74.8","30.10","328","0","0","0.00","0.00"
"21:14:57","43.1","35.7","75","30.10","328","0","0","0.00","0.00"
"21:19:56","42.7","35.3","75","30.10","328","0","0","0.00","0.00"
"21:24:59","42.3","35.2","75.9","30.10","328","0","0","0.00","0.00"
"21:29:58","41.8","34.8","76","30.10","328","0","0","0.00","0.00"
"21:34:57","41.4","34.8","77.2","30.10","328","0","0","0.00","0.00"
"21:39:59","40.9","34.6","78","30.10","328","0","0","0.00","0.00"
"21:44:58","40.4","34.4","79","30.11","328","0","0","0.00","0.00"
"21:49:58","40","34.4","80.1","30.11","328","0","0","0.00","0.00"
"21:54:57","39.7","34.3","80.8","30.11","328","0","0","0.00","0.00"
"21:59:56","39.3","34","81","30.11","328","0","0","0.00","0.00"
"22:04:59","38.9","33.7","81.4","30.11","328","0","0","0.00","0.00"
"22:09:58","38.5","33.6","82.2","30.11","328","0","0","0.00","0.00"
"22:14:59","38.1","33.2","82.3","30.13","328","0","0","0.00","0.00"
"22:19:57","37.8","33.3","83.6","30.13","328","0","0","0.00","0.00"
"22:24:40","37.6","33.5","84.9","30.13","328","0","0","0.00","0.00"
"22:29:58","37.5","33.4","84.9","30.14","328","0","0","0.00","0.00"
"22:34:57","37.2","32.9","84.2","30.14","328","0","0","0.00","0.00"
"22:39:58","36.9","32.7","84.8","30.14","328","0","0","0.00","0.00"
"22:44:57","36.6","32.6","85.5","30.14","328","0","0","0.00","0.00"
"22:49:56","36.4","32.8","86.7","30.13","328","0","0","0.00","0.00"
"22:54:59","36.3","32.7","86.7","30.13","328","0","0","0.00","0.00"
"22:59:51","36","32","85.6","30.14","328","0","0","0.00","0.00"
"23:04:57","35.7","32.1","86.8","30.14","328","0","0","0.00","0.00"
"23:09:57","35.5","32","87","30.14","328","0","0","0.00","0.00"
"23:14:59","35.3","32.1","87.9","30.14","328","0","0","0.00","0.00"
"23:19:58","35.2","32","88","30.13","328","0.8","2.4","0.00","0.00"
"23:24:58","35","31.7","87.6","30.13","328","0","0","0.00","0.00"
"23:29:56","34.7","31.2","87.1","30.13","328","0.1","2.4","0.00","0.00"
"23:34:56","34.5","31.4","88.4","30.13","328","1.6","3.6","0.00","0.00"
"23:39:57","34.4","31.5","89","30.13","328","0.7","2.4","0.00","0.00"
"23:44:56","34.3","31.4","89","30.14","328","0.3","2.4","0.00","0.00"
"23:49:59","34","30.9","88.5","30.14","328","0","0","0.00","0.00"
"23:54:58","33.8","31","89.3","30.14","328","0","1.2","0.00","0.00"
